DA3MD LFBD-LEMH

Flight info

Callsign DA3MD
Flight time 1h 3m
Altitude 41000
Route OBLOC DCT SECHE DCT AGN DCT TOU DCT LOMRA DCT ROCAN DCT GEANT DCT GIR DCT SALON N727 SARGO
Aircraft CL60/M-SBDE1E2E3FGHIJ1J4J5J7M3RWXYZ/LB1V1D1

Departure

Time 2026-04-16 09:03
Airport Bordeaux–Mérignac Airport (LFBD)

Arrival

Time 2026-04-16 10:06
Airport Menorca Airport (LEMH)
Time Latitude Longitude Altitude Speed Heading
2026-04-16 08:52 44.83627 -0.69814 162 ft 0 kts 222°
2026-04-16 08:58 44.83626 -0.69815 162 ft 1 kts 226°
2026-04-16 08:59 44.83634 -0.69880 162 ft 9 kts 255°
2026-04-16 08:59 44.83620 -0.69989 161 ft 13 kts 255°
2026-04-16 08:59 44.83551 -0.70101 162 ft 16 kts 224°
2026-04-16 08:59 44.83461 -0.70229 162 ft 19 kts 225°
2026-04-16 09:00 44.83356 -0.70375 163 ft 22 kts 224°
2026-04-16 09:00 44.83242 -0.70543 164 ft 24 kts 226°
2026-04-16 09:00 44.83120 -0.70717 165 ft 23 kts 224°
2026-04-16 09:00 44.83011 -0.70871 166 ft 21 kts 225°
2026-04-16 09:01 44.82777 -0.71211 167 ft 26 kts 225°
2026-04-16 09:01 44.82643 -0.71401 167 ft 26 kts 225°
2026-04-16 09:01 44.82539 -0.71550 168 ft 22 kts 225°
2026-04-16 09:02 44.82453 -0.71678 168 ft 11 kts 245°
2026-04-16 09:02 44.82473 -0.71805 168 ft 15 kts 301°
2026-04-16 09:02 44.82536 -0.71928 167 ft 13 kts 322°
2026-04-16 09:02 44.82658 -0.71836 167 ft 55 kts 47°
2026-04-16 09:03 44.83217 -0.71034 182 ft 165 kts 46°
2026-04-16 09:03 44.84130 -0.69840 1061 ft 199 kts 43°
2026-04-16 09:03 44.85249 -0.68264 1819 ft 253 kts 46°
2026-04-16 09:03 44.86435 -0.66546 3796 ft 253 kts 45°
2026-04-16 09:04 44.87600 -0.64870 5755 ft 247 kts 44°
2026-04-16 09:04 44.88746 -0.63223 7563 ft 240 kts 44°
2026-04-16 09:04 44.89861 -0.61623 9097 ft 239 kts 44°
2026-04-16 09:04 44.90997 -0.59870 10470 ft 245 kts 54°
2026-04-16 09:05 44.91695 -0.57660 11722 ft 253 kts 78°
2026-04-16 09:05 44.91720 -0.55051 12285 ft 290 kts 103°
2026-04-16 09:05 44.90676 -0.52362 12609 ft 328 kts 136°
2026-04-16 09:05 44.88858 -0.50269 13432 ft 347 kts 144°
2026-04-16 09:06 44.86909 -0.48162 14475 ft 357 kts 143°
2026-04-16 09:06 44.84895 -0.45970 15589 ft 363 kts 143°
2026-04-16 09:06 44.82817 -0.43688 16642 ft 370 kts 143°
2026-04-16 09:06 44.80633 -0.41254 17674 ft 377 kts 142°
2026-04-16 09:07 44.78525 -0.38850 18612 ft 383 kts 142°
2026-04-16 09:07 44.76344 -0.36356 19565 ft 389 kts 142°
2026-04-16 09:07 44.74095 -0.33770 20506 ft 394 kts 141°
2026-04-16 09:07 44.72224 -0.30824 21339 ft 401 kts 124°
2026-04-16 09:08 44.70936 -0.27040 22126 ft 407 kts 111°
2026-04-16 09:08 44.69899 -0.23282 22840 ft 413 kts 111°
2026-04-16 09:08 44.68847 -0.19495 23581 ft 417 kts 111°
2026-04-16 09:08 44.67741 -0.15587 24333 ft 421 kts 113°
2026-04-16 09:09 44.66425 -0.11667 25048 ft 426 kts 116°
2026-04-16 09:09 44.65175 -0.08136 25677 ft 430 kts 116°
2026-04-16 09:09 44.63744 -0.04090 26356 ft 434 kts 116°
2026-04-16 09:09 44.62337 -0.00119 26983 ft 438 kts 116°
2026-04-16 09:10 44.60950 0.03790 27564 ft 442 kts 116°
2026-04-16 09:10 44.59473 0.07949 28147 ft 446 kts 116°
2026-04-16 09:10 44.58038 0.11986 28687 ft 450 kts 116°
2026-04-16 09:10 44.56612 0.15988 29198 ft 453 kts 116°
2026-04-16 09:11 44.55100 0.20227 29689 ft 457 kts 116°
2026-04-16 09:11 44.53619 0.24376 30168 ft 460 kts 116°
2026-04-16 09:11 44.52128 0.28543 30625 ft 463 kts 116°
2026-04-16 09:11 44.50686 0.32568 31060 ft 466 kts 116°
2026-04-16 09:12 44.49177 0.36773 31514 ft 468 kts 116°
2026-04-16 09:12 44.47625 0.41091 31926 ft 471 kts 116°
2026-04-16 09:12 44.45899 0.45265 32302 ft 474 kts 123°
2026-04-16 09:12 44.43840 0.48915 32644 ft 477 kts 132°
2026-04-16 09:13 44.41314 0.52230 32967 ft 479 kts 141°
2026-04-16 09:13 44.38473 0.54940 33280 ft 480 kts 150°
2026-04-16 09:13 44.35399 0.57096 33552 ft 482 kts 155°
2026-04-16 09:13 44.32232 0.59157 33808 ft 484 kts 155°
2026-04-16 09:14 44.29084 0.61210 34078 ft 486 kts 155°
2026-04-16 09:14 44.25940 0.63259 34369 ft 487 kts 155°
2026-04-16 09:14 44.22809 0.65298 34741 ft 486 kts 156°
2026-04-16 09:14 44.19788 0.67262 35123 ft 484 kts 156°
2026-04-16 09:15 44.16889 0.69146 35479 ft 483 kts 156°
2026-04-16 09:15 44.13741 0.71188 35844 ft 481 kts 156°
2026-04-16 09:15 44.10689 0.73166 36191 ft 480 kts 156°
2026-04-16 09:15 44.07506 0.75227 36508 ft 480 kts 156°
2026-04-16 09:16 44.04414 0.77227 36834 ft 478 kts 156°
2026-04-16 09:16 44.01344 0.79210 37133 ft 478 kts 156°
2026-04-16 09:16 43.98255 0.81203 37425 ft 477 kts 156°
2026-04-16 09:16 43.95237 0.83194 37670 ft 477 kts 153°
2026-04-16 09:17 43.92303 0.85595 37928 ft 477 kts 146°
2026-04-16 09:17 43.89575 0.88482 38158 ft 477 kts 139°
2026-04-16 09:17 43.87206 0.91665 38365 ft 477 kts 132°
2026-04-16 09:17 43.85074 0.95301 38548 ft 476 kts 124°
2026-04-16 09:18 43.83219 0.99139 38695 ft 477 kts 122°
2026-04-16 09:18 43.81475 1.02835 38834 ft 477 kts 122°
2026-04-16 09:18 43.79621 1.06746 39022 ft 477 kts 122°
2026-04-16 09:18 43.77814 1.10555 39172 ft 477 kts 122°
2026-04-16 09:19 43.75990 1.14394 39330 ft 477 kts 122°
2026-04-16 09:19 43.74163 1.18236 39489 ft 477 kts 122°
2026-04-16 09:19 43.72336 1.22072 39619 ft 477 kts 122°
2026-04-16 09:19 43.70501 1.25921 39766 ft 477 kts 122°
2026-04-16 09:20 43.68675 1.29737 39892 ft 477 kts 123°
2026-04-16 09:20 43.66706 1.33424 40012 ft 477 kts 128°
2026-04-16 09:20 43.64621 1.36989 40109 ft 478 kts 128°
2026-04-16 09:21 43.60401 1.44203 40310 ft 478 kts 128°
2026-04-16 09:21 43.58324 1.47751 40424 ft 478 kts 128°
2026-04-16 09:21 43.56212 1.51354 40512 ft 478 kts 128°
2026-04-16 09:22 43.52016 1.58501 40658 ft 478 kts 128°
2026-04-16 09:22 43.47804 1.65661 40796 ft 478 kts 128°
2026-04-16 09:23 43.43582 1.72821 40925 ft 478 kts 128°
2026-04-16 09:23 43.39056 1.79551 41009 ft 479 kts 139°
2026-04-16 09:24 43.33561 1.84799 41072 ft 479 kts 153°
2026-04-16 09:24 43.27378 1.88193 41127 ft 477 kts 166°
2026-04-16 09:25 43.20823 1.89614 41190 ft 475 kts 178°
2026-04-16 09:25 43.14153 1.90243 41237 ft 476 kts 178°
2026-04-16 09:26 43.07473 1.90876 41228 ft 479 kts 178°
2026-04-16 09:26 43.00789 1.91510 41229 ft 482 kts 178°
2026-04-16 09:27 42.94049 1.92147 41228 ft 486 kts 178°
2026-04-16 09:27 42.87257 1.92788 41222 ft 490 kts 178°
2026-04-16 09:28 42.80405 1.93433 41226 ft 493 kts 178°
2026-04-16 09:28 42.73448 1.94461 41224 ft 499 kts 169°
2026-04-16 09:29 42.66699 1.97396 41220 ft 505 kts 156°
2026-04-16 09:29 42.60626 2.02300 41230 ft 507 kts 142°
2026-04-16 09:30 42.55160 2.08390 41221 ft 508 kts 140°
2026-04-16 09:30 42.49668 2.14554 41238 ft 509 kts 140°
2026-04-16 09:31 42.44189 2.20689 41233 ft 509 kts 140°
2026-04-16 09:31 42.38679 2.26843 41224 ft 509 kts 139°
2026-04-16 09:32 42.33190 2.32962 41225 ft 509 kts 140°
2026-04-16 09:32 42.27705 2.39061 41210 ft 509 kts 140°
2026-04-16 09:33 42.22196 2.45172 41215 ft 504 kts 139°
2026-04-16 09:33 42.16829 2.51112 41199 ft 496 kts 139°
2026-04-16 09:34 42.11470 2.57031 41190 ft 494 kts 139°
2026-04-16 09:34 42.06097 2.62951 41195 ft 493 kts 139°
2026-04-16 09:35 42.00741 2.68841 41183 ft 494 kts 140°
2026-04-16 09:35 41.95395 2.74706 41178 ft 494 kts 140°
2026-04-16 09:36 41.90082 2.80151 41176 ft 496 kts 144°
2026-04-16 09:36 41.84411 2.85564 41173 ft 496 kts 143°
2026-04-16 09:37 41.78757 2.90956 41166 ft 497 kts 144°
2026-04-16 09:37 41.73097 2.96343 41163 ft 497 kts 143°
2026-04-16 09:38 41.67451 3.01706 41172 ft 496 kts 144°
2026-04-16 09:38 41.61791 3.07071 41064 ft 500 kts 143°
2026-04-16 09:38 41.58884 3.09824 40531 ft 507 kts 143°
2026-04-16 09:39 41.55996 3.12554 39926 ft 505 kts 143°
2026-04-16 09:39 41.53099 3.15289 39160 ft 504 kts 143°
2026-04-16 09:39 41.50262 3.17964 38591 ft 496 kts 143°
2026-04-16 09:39 41.47375 3.20489 37895 ft 492 kts 147°
2026-04-16 09:40 41.44410 3.22919 37248 ft 488 kts 147°
2026-04-16 09:40 41.41510 3.25299 36612 ft 489 kts 147°
2026-04-16 09:40 41.38508 3.27762 35996 ft 491 kts 147°
2026-04-16 09:40 41.35644 3.30108 35290 ft 493 kts 147°
2026-04-16 09:41 41.32715 3.32506 34642 ft 491 kts 147°
2026-04-16 09:41 41.29743 3.34937 33909 ft 490 kts 147°
2026-04-16 09:41 41.26701 3.37423 33291 ft 489 kts 147°
2026-04-16 09:41 41.23814 3.39781 32629 ft 486 kts 147°
2026-04-16 09:42 41.20765 3.42267 31954 ft 479 kts 147°
2026-04-16 09:42 41.17832 3.44656 31303 ft 472 kts 147°
2026-04-16 09:42 41.15015 3.46944 30672 ft 465 kts 147°
2026-04-16 09:42 41.12133 3.49283 30020 ft 458 kts 147°
2026-04-16 09:43 41.09323 3.51563 29401 ft 451 kts 147°
2026-04-16 09:43 41.06576 3.53788 28783 ft 445 kts 147°
2026-04-16 09:43 41.03739 3.56087 28151 ft 439 kts 146°
2026-04-16 09:43 41.01069 3.58253 27553 ft 435 kts 146°
2026-04-16 09:44 40.98314 3.60482 26941 ft 434 kts 146°
2026-04-16 09:44 40.95540 3.62723 26319 ft 430 kts 146°
2026-04-16 09:44 40.92928 3.64830 25735 ft 426 kts 146°
2026-04-16 09:44 40.90222 3.67012 25130 ft 423 kts 147°
2026-04-16 09:45 40.87477 3.69222 24518 ft 420 kts 147°
2026-04-16 09:45 40.84965 3.71244 23957 ft 417 kts 147°
2026-04-16 09:45 40.82330 3.73362 23365 ft 414 kts 147°
2026-04-16 09:45 40.79680 3.75491 22778 ft 411 kts 147°
2026-04-16 09:46 40.77222 3.77463 22227 ft 408 kts 147°
2026-04-16 09:46 40.74641 3.79533 21646 ft 405 kts 147°
2026-04-16 09:46 40.72000 3.81648 21061 ft 401 kts 147°
2026-04-16 09:46 40.69600 3.83569 20523 ft 399 kts 147°
2026-04-16 09:47 40.67007 3.85643 19950 ft 396 kts 147°
2026-04-16 09:47 40.64498 3.87648 19382 ft 392 kts 147°
2026-04-16 09:47 40.62145 3.89526 18863 ft 389 kts 147°
2026-04-16 09:47 40.59685 3.91488 18308 ft 386 kts 147°
2026-04-16 09:48 40.57175 3.93490 17750 ft 383 kts 147°
2026-04-16 09:48 40.54893 3.95307 17246 ft 380 kts 147°
2026-04-16 09:48 40.52452 3.97249 16691 ft 377 kts 147°
2026-04-16 09:48 40.49945 3.99099 16142 ft 375 kts 155°
2026-04-16 09:49 40.47411 4.00135 15743 ft 373 kts 164°
2026-04-16 09:49 40.44748 4.01070 15511 ft 373 kts 163°
2026-04-16 09:49 40.42027 4.02036 15141 ft 373 kts 163°
2026-04-16 09:49 40.39467 4.02945 14820 ft 367 kts 163°
2026-04-16 09:50 40.36809 4.03886 14487 ft 355 kts 163°
2026-04-16 09:50 40.34268 4.04785 14164 ft 344 kts 163°
2026-04-16 09:50 40.31924 4.05615 13860 ft 335 kts 163°
2026-04-16 09:50 40.29491 4.06475 13557 ft 326 kts 163°
2026-04-16 09:51 40.27105 4.07319 13247 ft 325 kts 163°
2026-04-16 09:51 40.24899 4.08099 12957 ft 324 kts 163°
2026-04-16 09:51 40.22633 4.08900 12678 ft 323 kts 163°
2026-04-16 09:51 40.20430 4.09678 12389 ft 322 kts 163°
2026-04-16 09:52 40.18271 4.10440 12123 ft 318 kts 163°
2026-04-16 09:52 40.16117 4.11199 11850 ft 310 kts 163°
2026-04-16 09:52 40.14056 4.11924 11598 ft 302 kts 163°
2026-04-16 09:52 40.12020 4.12535 11330 ft 297 kts 173°
2026-04-16 09:53 40.09920 4.12399 10756 ft 303 kts 194°
2026-04-16 09:53 40.08033 4.11309 10518 ft 291 kts 216°
2026-04-16 09:53 40.06532 4.09589 10288 ft 281 kts 231°
2026-04-16 09:53 40.05359 4.07578 10079 ft 272 kts 239°
2026-04-16 09:54 40.04301 4.05526 9835 ft 267 kts 238°
2026-04-16 09:54 40.03180 4.03623 9610 ft 265 kts 233°
2026-04-16 09:54 40.01894 4.01779 9103 ft 275 kts 227°
2026-04-16 09:54 40.00499 4.00115 8984 ft 265 kts 222°
2026-04-16 09:55 39.98989 3.98595 8697 ft 267 kts 217°
2026-04-16 09:55 39.97401 3.97269 8491 ft 264 kts 212°
2026-04-16 09:55 39.95643 3.96070 8239 ft 266 kts 206°
2026-04-16 09:55 39.93759 3.95062 7984 ft 266 kts 200°
2026-04-16 09:56 39.91911 3.94322 7748 ft 265 kts 195°
2026-04-16 09:56 39.89995 3.93795 7507 ft 264 kts 189°
2026-04-16 09:56 39.87980 3.93499 7256 ft 263 kts 184°
2026-04-16 09:56 39.86084 3.93432 7025 ft 263 kts 179°
2026-04-16 09:57 39.84128 3.93589 6784 ft 261 kts 173°
2026-04-16 09:57 39.82128 3.93993 6530 ft 259 kts 167°
2026-04-16 09:57 39.80368 3.94559 6308 ft 259 kts 162°
2026-04-16 09:57 39.78573 3.95355 6077 ft 257 kts 157°
2026-04-16 09:58 39.76832 3.96354 5836 ft 256 kts 151°
2026-04-16 09:58 39.75226 3.97500 5619 ft 254 kts 146°
2026-04-16 09:58 39.73658 3.98859 5390 ft 241 kts 141°
2026-04-16 09:58 39.72249 4.00319 5162 ft 236 kts 135°
2026-04-16 09:59 39.71018 4.01817 4958 ft 236 kts 130°
2026-04-16 09:59 39.69878 4.03438 4753 ft 223 kts 125°
2026-04-16 09:59 39.68860 4.05130 4546 ft 213 kts 121°
2026-04-16 09:59 39.68019 4.06761 4354 ft 210 kts 116°
2026-04-16 10:00 39.67354 4.08253 4188 ft 208 kts 112°
2026-04-16 10:00 39.66663 4.10074 3998 ft 206 kts 108°
2026-04-16 10:00 39.66101 4.11857 3801 ft 203 kts 104°
2026-04-16 10:01 39.65453 4.15508 3419 ft 193 kts 77°
2026-04-16 10:01 39.65950 4.17082 3236 ft 182 kts 47°
2026-04-16 10:01 39.67101 4.17957 3055 ft 176 kts 13°
2026-04-16 10:01 39.68435 4.18236 2935 ft 176 kts
2026-04-16 10:02 39.69660 4.18453 2827 ft 177 kts
2026-04-16 10:02 39.70956 4.18709 2692 ft 167 kts
2026-04-16 10:02 39.72136 4.18952 2507 ft 160 kts
2026-04-16 10:02 39.73262 4.19184 2301 ft 154 kts
2026-04-16 10:03 39.74349 4.19409 2303 ft 147 kts
2026-04-16 10:03 39.75394 4.19622 2163 ft 147 kts
2026-04-16 10:03 39.76424 4.19833 1982 ft 130 kts
2026-04-16 10:03 39.77304 4.20016 1808 ft 120 kts
2026-04-16 10:04 39.78123 4.20186 1637 ft 115 kts
2026-04-16 10:04 39.78946 4.20335 1461 ft 114 kts
2026-04-16 10:04 39.79738 4.20439 1346 ft 113 kts
2026-04-16 10:04 39.80531 4.20633 1264 ft 114 kts 11°
2026-04-16 10:05 39.81328 4.20846 1097 ft 116 kts
2026-04-16 10:05 39.82128 4.21001 887 ft 113 kts
2026-04-16 10:05 39.82917 4.21170 732 ft 115 kts
2026-04-16 10:05 39.83713 4.21340 607 ft 114 kts
2026-04-16 10:06 39.84504 4.21503 489 ft 116 kts
2026-04-16 10:06 39.85318 4.21665 324 ft 115 kts
2026-04-16 10:06 39.86051 4.21803 293 ft 93 kts 11°
2026-04-16 10:06 39.86504 4.21903 295 ft 42 kts
2026-04-16 10:07 39.86733 4.21974 297 ft 32 kts 23°
2026-04-16 10:07 39.86896 4.22109 296 ft 14 kts 39°
2026-04-16 10:07 39.86936 4.22198 295 ft 12 kts 104°
2026-04-16 10:07 39.86853 4.22226 293 ft 14 kts 190°
2026-04-16 10:08 39.86711 4.22190 287 ft 26 kts 192°
2026-04-16 10:08 39.86541 4.22158 280 ft 16 kts 188°
2026-04-16 10:08 39.86399 4.22131 280 ft 24 kts 189°
2026-04-16 10:08 39.86269 4.22102 282 ft 10 kts 189°
2026-04-16 10:09 39.86199 4.22132 281 ft 12 kts 110°
2026-04-16 10:09 39.86182 4.22266 275 ft 9 kts 108°
2026-04-16 10:09 39.86137 4.22286 276 ft 1 kts 186°
2026-04-16 10:09 39.86099 4.22279 277 ft 0 kts 188°
2026-04-16 10:10 39.86084 4.22276 277 ft 3 kts 189°
2026-04-16 10:10 39.86047 4.22268 278 ft 4 kts 191°
2026-04-16 10:10 39.86042 4.22220 279 ft 4 kts 301°
2026-04-16 10:10 39.86067 4.22210 279 ft 4 kts
2026-04-16 10:11 39.86069 4.22211 279 ft 0 kts